Weather History for KCMD - March, 2014

Change the Weather History Date:

Thursday, March 27, 2014

  Actual Average Record
Temperature  
Mean Temperature 54 °F -  
Max Temperature 68 °F - - ()
Min Temperature 39 °F - - ()
Degree Days  
Heating Degree Days 12    
Growing Degree Days 4 (Base 50)    
Moisture  
Dew Point 28 °F    
Average Humidity 39    
Maximum Humidity 89    
Minimum Humidity 23    
Precipitation  
Precipitation 0.09 in - - ()
Sea Level Pressure  
Sea Level Pressure 30.14 in    
Wind  
Wind Speed 9 mph (SSE)    
Max Wind Speed 18 mph    
Max Gust Speed 29 mph    
Visibility 10 miles    
Events Rain , Thunderstorm    
Averages and records for this station are not official NWS values.
T = Trace of Precipitation, MM = Missing Value Source: NWS Daily Summary

Daily Weather History Graph

Daily Weather History Graph

Search for Another Location

Airport or City:

Trip Planner

Search our weather history database for the weather conditions in past years. The results will help you decide how hot, cold, wet, or windy it might be!

Date:

Astronomy

Mar. 27, 2014 Rise Set
Actual Time 6:41 AM CDT 7:04 PM CDT
Civil Twilight 6:16 AM CDT 7:29 PM CDT
Nautical Twilight 5:46 AM CDT 7:59 PM CDT
Astronomical Twilight 5:17 AM CDT 8:29 PM CDT
Moon 4:23 AM CDT (3/27) 3:59 PM CDT (3/27)
Length of Visible Light 13h 13m
Length of Day
12h 23m
Waning Crescent, 13% of the Moon is Illuminated
Mar 27
Waning Crescent
Mar 30
New
Apr 7
First Quarter
Apr 15
Full
Apr 22
Last Quarter

Hourly Weather History & Observations

Time (CDT) Temp. Windchill Dew Point Humidity Pressure Visibility Wind Dir Wind Speed Gust Speed Precip Events Conditions
12:15 AM 43.3 °F 39.9 °F 17.4 °F 35% 30.22 in 10.0 mi SE 5.8 mph - N/A   Clear
12:35 AM 42.8 °F 40.1 °F 17.6 °F 36% 30.21 in 10.0 mi SE 4.6 mph - N/A   Clear
1:15 AM 42.6 °F 39.9 °F 18.5 °F 38% 30.21 in 10.0 mi SE 4.6 mph - N/A   Clear
1:35 AM 42.4 °F 38.8 °F 18.7 °F 39% 30.20 in 10.0 mi SE 5.8 mph - N/A   Clear
1:55 AM 42.4 °F 38.8 °F 18.5 °F 38% 30.21 in 10.0 mi SE 5.8 mph - N/A   Clear
2:15 AM 42.4 °F 38.1 °F 18.5 °F 38% 30.19 in 10.0 mi SE 6.9 mph - N/A   Clear
2:35 AM 42.6 °F 39.9 °F 18.3 °F 38% 30.21 in 10.0 mi South 4.6 mph - N/A   Clear
2:55 AM 41.9 °F 38.2 °F 19.9 °F 42% 30.21 in 10.0 mi South 5.8 mph - N/A   Clear
3:15 AM 41.7 °F 38.0 °F 20.1 °F 42% 30.20 in 10.0 mi SE 5.8 mph - N/A   Clear
3:35 AM 41.7 °F - 19.8 °F 41% 30.21 in 10.0 mi Calm Calm - N/A   Clear
3:55 AM 41.0 °F - 19.9 °F 43% 30.23 in 10.0 mi Calm Calm - N/A   Clear
4:15 AM 39.7 °F 36.5 °F 21.4 °F 48% 30.21 in 10.0 mi ESE 4.6 mph - N/A   Clear
4:35 AM 41.4 °F 39.4 °F 20.7 °F 44% 30.20 in 10.0 mi ESE 3.5 mph - N/A   Clear
4:55 AM 41.4 °F 38.4 °F 20.3 °F 43% 30.20 in 10.0 mi SE 4.6 mph - N/A   Clear
5:15 AM 41.5 °F 37.1 °F 20.7 °F 43% 30.19 in 10.0 mi SE 6.9 mph - N/A   Clear
5:35 AM 41.9 °F 36.9 °F 20.5 °F 42% 30.19 in 10.0 mi SE 8.1 mph - N/A   Clear
5:55 AM 42.6 °F 37.2 °F 20.5 °F 41% 30.20 in 10.0 mi SSE 9.2 mph - N/A   Clear
6:15 AM 43.0 °F 39.5 °F 21.0 °F 42% 30.19 in 10.0 mi SE 5.8 mph - N/A   Scattered Clouds
6:35 AM 43.2 °F 38.4 °F 21.2 °F 42% 30.19 in 10.0 mi SSE 8.1 mph - N/A   Scattered Clouds
6:55 AM 43.5 °F 39.4 °F 21.6 °F 42% 30.20 in 10.0 mi SSE 6.9 mph - N/A   Scattered Clouds
7:15 AM 43.7 °F 38.6 °F 21.7 °F 42% 30.22 in 10.0 mi SSE 9.2 mph - N/A   Scattered Clouds
7:35 AM 43.9 °F 39.9 °F 21.9 °F 42% 30.21 in 10.0 mi SSE 6.9 mph - N/A   Scattered Clouds
7:55 AM 44.1 °F 39.0 °F 22.1 °F 42% 30.23 in 10.0 mi South 9.2 mph - N/A   Clear
8:15 AM 45.1 °F 39.9 °F 22.6 °F 41% 30.23 in 10.0 mi South 10.4 mph - N/A   Scattered Clouds
8:35 AM 46.9 °F - 22.8 °F 39% 30.23 in 10.0 mi SSE 10.4 mph 16.1 mph N/A   Scattered Clouds
8:55 AM 47.7 °F - 22.8 °F 38% 30.24 in 10.0 mi South 10.4 mph 17.3 mph N/A   Scattered Clouds
9:15 AM 48.9 °F - 23.2 °F 36% 30.24 in 10.0 mi South 17.3 mph 21.9 mph N/A   Scattered Clouds
9:35 AM 49.6 °F - 22.5 °F 34% 30.24 in 10.0 mi SSE 11.5 mph 20.7 mph N/A   Scattered Clouds
9:55 AM 50.0 °F - 22.3 °F 34% 30.24 in 10.0 mi SSE 13.8 mph 18.4 mph N/A   Mostly Cloudy
10:15 AM 50.4 °F - 22.1 °F 33% 30.23 in 10.0 mi SSE 15.0 mph 25.3 mph N/A   Scattered Clouds
10:35 AM 51.1 °F - 22.5 °F 33% 30.23 in 10.0 mi SSE 15.0 mph - N/A   Scattered Clouds
10:55 AM 51.8 °F - 22.8 °F 32% 30.23 in 10.0 mi South 15.0 mph 23.0 mph N/A   Scattered Clouds
11:15 AM 54.3 °F - 23.5 °F 30% 30.22 in 10.0 mi South 17.3 mph 24.2 mph N/A   Clear
11:35 AM 55.6 °F - 24.4 °F 30% 30.21 in 10.0 mi South 16.1 mph 27.6 mph N/A   Clear
11:55 AM 56.1 °F - 25.0 °F 30% 30.19 in 10.0 mi South 15.0 mph 20.7 mph N/A   Clear
12:15 PM 56.8 °F - 25.0 °F 29% 30.18 in 10.0 mi SSE 17.3 mph 24.2 mph N/A   Clear
12:35 PM 58.6 °F - 25.9 °F 29% 30.17 in 10.0 mi SSE 12.7 mph 18.4 mph N/A   Clear
12:55 PM 60.8 °F - 27.0 °F 28% 30.17 in 10.0 mi SSE 10.4 mph 18.4 mph N/A   Clear
1:15 PM 61.5 °F - 26.4 °F 26% 30.16 in 10.0 mi South 17.3 mph 25.3 mph N/A   Clear
1:35 PM 62.4 °F - 25.9 °F 25% 30.15 in 10.0 mi South 13.8 mph 24.2 mph N/A   Clear
1:55 PM 63.7 °F - 26.4 °F 24% 30.13 in 10.0 mi SSE 10.4 mph 19.6 mph N/A   Clear
2:15 PM 64.2 °F - 25.3 °F 23% 30.12 in 10.0 mi SE 11.5 mph 23.0 mph N/A   Clear
2:35 PM 64.8 °F - 25.7 °F 23% 30.11 in 10.0 mi SSE 12.7 mph 23.0 mph N/A   Clear
2:55 PM 65.7 °F - 27.1 °F 23% 30.10 in 10.0 mi South 16.1 mph 21.9 mph N/A   Clear
3:15 PM 66.7 °F - 28.2 °F 24% 30.08 in 10.0 mi South 15.0 mph 21.9 mph N/A   Clear
3:35 PM 67.3 °F - 28.2 °F 23% 30.07 in 10.0 mi South 12.7 mph 20.7 mph N/A   Clear
3:55 PM 67.5 °F - 28.6 °F 23% 30.07 in 10.0 mi SSE 13.8 mph 20.7 mph N/A   Clear
4:15 PM 68.0 °F - 29.3 °F 24% 30.06 in 10.0 mi South 13.8 mph 21.9 mph N/A   Clear
4:35 PM 68.5 °F - 30.7 °F 25% 30.06 in 10.0 mi South 18.4 mph 28.8 mph N/A   Clear
4:55 PM 68.0 °F - 31.1 °F 25% 30.05 in 10.0 mi SSE 12.7 mph 24.2 mph N/A   Clear
5:15 PM 67.3 °F - 32.2 °F 27% 30.06 in 10.0 mi South 16.1 mph 23.0 mph N/A   Clear
5:35 PM 66.0 °F - 33.1 °F 29% 30.06 in 10.0 mi South 15.0 mph 28.8 mph N/A   Clear
5:55 PM 65.3 °F - 34.2 °F 31% 30.05 in 10.0 mi SSE 9.2 mph 19.6 mph N/A   Clear
6:15 PM 64.9 °F - 34.9 °F 33% 30.05 in 10.0 mi SSE 13.8 mph - N/A   Clear
6:35 PM 64.2 °F - 35.6 °F 35% 30.03 in 10.0 mi South 10.4 mph 20.7 mph N/A   Clear
7:15 PM 63.5 °F - 39.0 °F 41% 30.03 in 10.0 mi SSE 9.2 mph 18.4 mph N/A   Clear
7:55 PM 62.6 °F - 40.1 °F 44% 30.02 in 10.0 mi SSE 11.5 mph 17.3 mph N/A   Clear
8:15 PM 62.2 °F - 41.0 °F 46% 30.01 in 10.0 mi SSE 17.3 mph 26.5 mph N/A   Clear
8:35 PM 62.1 °F - 41.9 °F 48% 30.01 in 10.0 mi SSE 13.8 mph 25.3 mph N/A   Clear
8:55 PM 61.7 °F - 41.9 °F 48% 30.01 in 10.0 mi SSE 12.7 mph 24.2 mph N/A   Clear
9:15 PM 61.7 °F - 41.5 °F 48% 30.01 in 10.0 mi SSE 15.0 mph 24.2 mph N/A   Clear
9:35 PM 61.7 °F - 41.4 °F 47% 30.01 in 10.0 mi SSE 16.1 mph 25.3 mph N/A Thunderstorm Clear
9:55 PM 61.7 °F - 41.5 °F 48% 30.02 in 10.0 mi South 18.4 mph 23.0 mph N/A   Clear
10:15 PM 61.7 °F - 42.3 °F 49% 30.04 in 10.0 mi South 18.4 mph 27.6 mph N/A   Clear
10:35 PM 61.5 °F - 43.7 °F 52% 30.08 in 10.0 mi South 16.1 mph 26.5 mph N/A Rain Light Rain
10:55 PM 58.5 °F - 48.6 °F 70% 30.08 in 7.0 mi SSW 11.5 mph 25.3 mph 0.03 in Rain Light Rain
11:15 PM 56.1 °F - 51.3 °F 84% 30.09 in 7.0 mi South 9.2 mph - 0.04 in Rain Heavy Rain
11:35 PM 55.2 °F - 52.0 °F 89% 30.08 in 10.0 mi SSE 11.5 mph 16.1 mph 0.06 in Rain Light Rain
11:55 PM 55.4 °F - 52.2 °F 89% 30.06 in 10.0 mi South 11.5 mph - 0.06 in   Scattered Clouds